Total_Precipitation_Accumulation
0.00 -0.00 -0.00 -0.01 -0.03 -0.03 -0.03 -0.05 -0.07 -0.07 -0.14 -0.15 -0.15 -0.13 -0.13 -0.13 -0.13 -0.15 -0.15 -0.20 -0.24 -0.20 -0.20 -0.17 -0.14 -0.12 -0.12 -0.11 -0.10 -0.10 -0.14 -0.15 -0.16 -0.19 -0.19 -0.54 -0.81 -1.09 -1.09 -1.16 -1.27 -1.15 -1.15 -0.90 -0.78 -0.78 -0.87 -0.66 -0.56 -0.56 -0.45 -0.39 -0.41 -0.35 -0.35 -0.39 -0.35 -0.26 -0.26 -0.25 -0.27 -0.11 -0.11 -0.08 -0.16 -0.16 -0.38 -0.54 -0.59
0.00 -0.00 -0.00 -0.01 -0.02 -0.02 -0.02 -0.03 -0.05 -0.05 -0.12 -0.14 -0.16 -0.14 -0.14 -0.13 -0.13 -0.14 -0.14 -0.20 -0.25 -0.24 -0.24 -0.16 -0.14 -0.12 -0.12 -0.10 -0.07 -0.07 -0.09 -0.08 -0.14 -0.22 -0.22 -0.32 -0.41 -0.78 -0.78 -1.08 -1.07 -1.30 -1.30 -1.25 -1.12 -1.12 -0.94 -0.77 -0.64 -0.64 -0.56 -0.50 -0.40 -0.32 -0.32 -0.32 -0.35 -0.39 -0.39 -0.43 -0.45 -0.14 -0.14 -0.10 -0.19 -0.19 -0.35 -0.50 -0.62
0.00 0.00 0.00 -0.01 -0.01 -0.01 -0.02 -0.03 -0.04 -0.04 -0.10 -0.13 -0.16 -0.15 -0.15 -0.13 -0.11 -0.13 -0.13 -0.18 -0.21 -0.20 -0.20 -0.18 -0.16 -0.13 -0.13 -0.09 -0.08 -0.08 -0.06 -0.07 -0.10 -0.14 -0.14 -0.19 -0.27 -0.44 -0.44 -0.75 -1.19 -1.38 -1.38 -1.25 -0.98 -0.98 -0.83 -0.84 -0.81 -0.81 -0.85 -0.81 -0.66 -0.46 -0.46 -0.24 -0.26 -0.37 -0.37 -0.44 -0.46 -0.24 -0.24 -0.18 -0.27 -0.27 -0.39 -0.50 -0.50
0.00 0.00 0.00 -0.00 -0.01 -0.01 -0.02 -0.03 -0.03 -0.03 -0.08 -0.12 -0.14 -0.13 -0.13 -0.12 -0.08 -0.10 -0.10 -0.14 -0.15 -0.17 -0.17 -0.19 -0.17 -0.15 -0.15 -0.11 -0.10 -0.10 -0.06 -0.05 -0.06 -0.08 -0.08 -0.14 -0.19 -0.25 -0.25 -0.36 -0.48 -0.84 -0.84 -1.34 -1.21 -1.21 -0.89 -0.95 -0.96 -0.96 -0.99 -0.89 -0.83 -0.75 -0.75 -0.58 -0.37 -0.43 -0.43 -0.43 -0.39 -0.38 -0.38 -0.42 -0.57 -0.57 -0.66 -0.56 -0.42
0.00 0.00 0.00 -0.00 -0.01 -0.01 -0.01 -0.02 -0.02 -0.02 -0.06 -0.10 -0.12 -0.12 -0.12 -0.11 -0.06 -0.06 -0.06 -0.10 -0.14 -0.16 -0.16 -0.19 -0.18 -0.16 -0.16 -0.14 -0.13 -0.13 -0.08 -0.05 -0.04 -0.04 -0.04 -0.08 -0.09 -0.13 -0.13 -0.16 -0.30 -0.46 -0.46 -1.07 -1.15 -1.15 -1.14 -1.17 -1.35 -1.35 -1.29 -1.16 -1.01 -0.86 -0.86 -0.70 -0.53 -0.44 -0.44 -0.43 -0.35 -0.34 -0.34 -0.39 -0.52 -0.52 -0.66 -0.54 -0.48
0.00 0.00 0.00 0.00 -0.00 -0.00 -0.01 -0.01 -0.02 -0.02 -0.03 -0.07 -0.09 -0.10 -0.10 -0.10 -0.06 -0.07 -0.07 -0.10 -0.13 -0.15 -0.15 -0.16 -0.15 -0.13 -0.13 -0.13 -0.13 -0.13 -0.12 -0.08 -0.05 -0.04 -0.04 -0.05 -0.05 -0.07 -0.07 -0.11 -0.18 -0.26 -0.26 -0.41 -0.88 -0.88 -0.65 -0.78 -1.10 -1.10 -1.56 -1.64 -1.48 -1.22 -1.22 -0.88 -0.70 -0.51 -0.51 -0.40 -0.28 -0.21 -0.21 -0.23 -0.32 -0.32 -0.42 -0.49 -0.40
0.00 0.00 0.00 0.00 0.00 0.00 -0.00 -0.01 -0.01 -0.01 -0.01 -0.03 -0.06 -0.08 -0.08 -0.10 -0.07 -0.08 -0.08 -0.09 -0.08 -0.08 -0.08 -0.11 -0.10 -0.12 -0.12 -0.12 -0.13 -0.13 -0.14 -0.13 -0.08 -0.05 -0.05 -0.04 -0.05 -0.05 -0.05 -0.05 -0.09 -0.15 -0.15 -0.18 -0.56 -0.56 -0.40 -0.48 -0.67 -0.67 -0.92 -1.16 -1.28 -1.33 -1.33 -1.29 -1.05 -0.66 -0.66 -0.54 -0.39 -0.30 -0.30 -0.20 -0.18 -0.18 -0.31 -0.38 -0.29
0.01 0.01 0.01 0.01 0.00 0.00 -0.00 -0.00 -0.01 -0.01 -0.01 -0.01 -0.04 -0.06 -0.06 -0.08 -0.08 -0.07 -0.07 -0.08 -0.07 -0.07 -0.07 -0.07 -0.08 -0.10 -0.10 -0.12 -0.11 -0.11 -0.11 -0.17 -0.13 -0.09 -0.09 -0.06 -0.06 -0.05 -0.05 -0.03 -0.04 -0.08 -0.08 -0.11 -0.30 -0.30 -0.19 -0.26 -0.31 -0.31 -0.40 -0.49 -0.77 -0.91 -0.91 -0.98 -0.88 -0.45 -0.45 -0.40 -0.41 -0.40 -0.40 -0.31 -0.29 -0.29 -0.28 -0.29 -0.27
0.01 0.01 0.01 0.01 0.01 0.01 0.00 0.00 -0.00 -0.00 -0.01 -0.01 -0.02 -0.04 -0.04 -0.05 -0.06 -0.05 -0.05 -0.07 -0.09 -0.07 -0.07 -0.07 -0.05 -0.07 -0.07 -0.08 -0.08 -0.08 -0.09 -0.18 -0.16 -0.10 -0.10 -0.08 -0.07 -0.05 -0.05 -0.04 -0.04 -0.05 -0.05 -0.06 -0.06 -0.06 -0.09 -0.13 -0.13 -0.13 -0.13 -0.18 -0.32 -0.40 -0.40 -0.48 -0.52 -0.28 -0.28 -0.17 -0.35 -0.34 -0.34 -0.33 -0.39 -0.39 -0.39 -0.49 -0.30
0.01 0.01 0.01 0.01 0.01 0.01 0.01 0.00 0.00 0.00 -0.00 -0.01 -0.01 -0.03 -0.03 -0.04 -0.03 -0.04 -0.04 -0.06 -0.07 -0.06 -0.06 -0.06 -0.05 -0.04 -0.04 -0.05 -0.07 -0.07 -0.07 -0.17 -0.16 -0.10 -0.10 -0.08 -0.07 -0.07 -0.07 -0.07 -0.05 -0.04 -0.04 -0.05 -0.05 -0.05 -0.07 -0.13 -0.10 -0.10 -0.06 -0.06 -0.08 -0.20 -0.20 -0.31 -0.36 -0.28 -0.28 -0.16 -0.14 -0.18 -0.18 -0.22 -0.37 -0.37 -0.49 -0.55 -0.50
0.01 0.01 0.01 0.01 0.01 0.01 0.01 0.00 0.00 0.00 -0.00 -0.00 -0.01 -0.01 -0.01 -0.01 -0.02 -0.03 -0.03 -0.01 -0.03 -0.03 -0.03 -0.04 -0.04 -0.03 -0.03 -0.04 -0.05 -0.05 -0.06 -0.10 -0.14 -0.11 -0.11 -0.08 -0.06 -0.06 -0.06 -0.08 -0.09 -0.06 -0.06 -0.08 -0.07 -0.07 -0.06 -0.07 -0.10 -0.10 -0.10 -0.12 -0.10 -0.09 -0.09 -0.16 -0.33 -0.25 -0.25 -0.15 -0.10 -0.11 -0.11 -0.15 -0.38 -0.38 -0.57 -0.62 -0.52
0.01 0.01 0.01 0.01 0.01 0.01 0.01 0.01 0.00 0.00 -0.00 -0.01 -0.01 -0.01 -0.01 -0.01 -0.02 -0.02 -0.02 -0.01 -0.01 -0.02 -0.02 -0.01 -0.04 -0.03 -0.03 -0.03 -0.03 -0.03 -0.04 -0.07 -0.12 -0.10 -0.10 -0.07 -0.06 -0.05 -0.05 -0.06 -0.10 -0.10 -0.10 -0.10 -0.10 -0.10 -0.08 -0.06 -0.09 -0.09 -0.22 -0.29 -0.25 -0.14 -0.14 -0.09 -0.34 -0.19 -0.19 -0.17 -0.10 -0.10 -0.10 -0.16 -0.43 -0.43 -0.59 -0.58 -0.49
0.01 0.01 0.01 0.01 0.01 0.01 0.01 0.01 0.00 0.00 -0.00 -0.00 -0.01 -0.01 -0.01 -0.01 -0.01 -0.02 -0.02 -0.01 -0.01 -0.01 -0.01 -0.01 -0.01 -0.02 -0.02 -0.02 -0.02 -0.02 -0.02 -0.04 -0.08 -0.09 -0.09 -0.08 -0.06 -0.05 -0.05 -0.05 -0.08 -0.08 -0.08 -0.10 -0.10 -0.10 -0.10 -0.08 -0.07 -0.07 -0.26 -0.46 -0.40 -0.17 -0.17 -0.10 -0.54 -0.14 -0.14 -0.14 -0.12 -0.12 -0.12 -0.10 -0.40 -0.40 -0.61 -0.53 -0.43
0.01 0.01 0.01 0.01 0.01 0.01 0.01 0.01 0.01 0.01 0.00 -0.00 -0.01 -0.01 -0.01 -0.01 -0.01 -0.02 -0.02 -0.01 -0.02 -0.01 -0.01 -0.01 -0.00 -0.00 -0.00 -0.01 -0.02 -0.02 -0.02 -0.03 -0.04 -0.07 -0.07 -0.06 -0.06 -0.05 -0.05 -0.05 -0.07 -0.07 -0.07 -0.08 -0.09 -0.09 -0.09 -0.10 -0.10 -0.10 -0.27 -0.53 -0.44 -0.25 -0.25 -0.09 -0.07 -0.15 -0.15 -0.16 -0.16 -0.15 -0.15 -0.15 -0.18 -0.18 -0.65 -0.60 -0.54
0.01 0.01 0.01 0.01 0.01 0.01 0.01 0.01 0.01 0.01 0.00 -0.00 -0.01 -0.01 -0.01 -0.01 -0.01 -0.01 -0.01 -0.02 -0.01 -0.01 -0.01 -0.00 -0.00 -0.00 -0.00 -0.01 -0.01 -0.01 -0.02 -0.05 -0.05 -0.05 -0.05 -0.05 -0.04 -0.04 -0.04 -0.05 -0.04 -0.05 -0.05 -0.05 -0.05 -0.05 -0.06 -0.08 -0.08 -0.08 -0.10 -0.29 -0.29 -0.23 -0.23 -0.12 -0.12 -0.20 -0.20 -0.19 -0.19 -0.18 -0.18 -0.19 -0.23 -0.23 -0.40 -0.76 -0.74
0.00 0.01 0.01 0.01 0.01 0.01 0.01 0.01 0.01 0.01 0.00 -0.00 -0.00 -0.01 -0.01 -0.01 -0.01 -0.01 -0.01 -0.02 -0.01 -0.01 -0.01 -0.01 -0.01 0.01 0.01 0.01 0.00 0.00 -0.02 -0.06 -0.06 -0.04 -0.04 -0.04 -0.04 -0.03 -0.03 -0.03 -0.03 -0.04 -0.04 -0.04 -0.04 -0.04 -0.05 -0.06 -0.06 -0.06 -0.04 -0.10 -0.14 -0.18 -0.18 -0.18 -0.20 -0.20 -0.20 -0.17 -0.23 -0.23 -0.23 -0.22 -0.26 -0.26 -0.32 -0.63 -0.93
0.00 0.01 0.01 0.01 0.01 0.01 0.01 0.01 0.01 0.01 0.00 -0.00 -0.00 -0.00 -0.00 -0.01 -0.00 -0.01 -0.01 -0.02 -0.02 -0.01 -0.01 -0.01 -0.01 0.00 0.00 0.01 0.00 0.00 -0.01 -0.05 -0.05 -0.04 -0.04 -0.03 -0.03 -0.03 -0.03 -0.02 -0.02 -0.02 -0.02 -0.03 -0.03 -0.03 -0.03 -0.04 -0.05 -0.05 -0.04 -0.05 -0.15 -0.25 -0.25 -0.27 -0.28 -0.25 -0.25 -0.17 -0.15 -0.19 -0.19 -0.20 -0.15 -0.15 -0.21 -0.44 -0.69
0.00 0.00 0.00 0.01 0.01 0.01 0.01 0.01 0.01 0.01 0.00 0.00 0.00 0.00 0.00 0.00 0.00 -0.00 -0.00 -0.01 -0.01 -0.02 -0.02 -0.01 -0.01 -0.00 -0.00 0.00 -0.00 -0.00 -0.01 -0.01 -0.02 -0.03 -0.03 -0.02 -0.03 -0.03 -0.03 -0.02 -0.01 -0.01 -0.01 -0.01 -0.01 -0.01 -0.01 -0.01 -0.02 -0.02 -0.01 -0.02 -0.01 -0.06 -0.06 -0.18 -0.22 -0.16 -0.16 -0.14 -0.16 -0.09 -0.09 -0.10 -0.08 -0.08 -0.10 -0.16 -0.41
0.00 0.00 0.00 0.00 0.00 0.00 0.00 0.00 0.01 0.01 0.00 0.00 0.00 0.00 0.00 0.00 0.00 -0.00 -0.00 -0.01 -0.01 -0.01 -0.01 -0.01 -0.01 -0.00 -0.00 0.01 0.01 0.01 -0.01 -0.04 -0.05 -0.04 -0.04 -0.03 -0.02 -0.03 -0.03 -0.02 -0.01 -0.02 -0.02 -0.01 -0.01 -0.01 0.00 0.00 -0.00 -0.00 -0.01 -0.00 -0.01 -0.01 -0.01 -0.07 -0.12 -0.09 -0.09 -0.05 -0.12 -0.14 -0.14 -0.12 -0.09 -0.09 -0.11 -0.14 -0.27
0.00 0.00 0.00 0.00 0.00 0.00 0.00 0.00 0.00 0.00 0.00 0.01 0.01 0.01 0.01 0.01 0.01 -0.00 -0.00 -0.00 -0.01 -0.01 -0.01 -0.00 -0.00 -0.00 -0.00 0.01 0.01 0.01 -0.00 -0.01 -0.03 -0.06 -0.06 -0.07 -0.04 -0.02 -0.02 -0.02 -0.02 -0.02 -0.02 -0.02 -0.01 -0.01 0.00 0.01 -0.00 -0.00 -0.01 -0.01 -0.01 -0.02 -0.02 -0.03 -0.06 -0.06 -0.06 -0.02 -0.06 -0.12 -0.12 -0.09 -0.10 -0.10 -0.13 -0.15 -0.19
0.00 0.00 0.00 0.00 0.00 0.00 0.00 0.00 0.00 0.00 0.01 0.01 0.01 0.01 0.01 0.01 0.01 0.00 0.00 -0.00 -0.00 -0.00 -0.00 0.00 0.00 0.00 0.00 0.00 0.01 0.01 -0.00 -0.00 -0.01 -0.02 -0.02 -0.02 -0.06 -0.03 -0.03 -0.01 -0.02 -0.02 -0.02 -0.02 -0.02 -0.02 -0.02 0.01 -0.00 -0.00 -0.01 -0.01 -0.01 -0.01 -0.01 -0.01 -0.01 -0.02 -0.02 -0.02 -0.03 -0.07 -0.07 -0.06 -0.06 -0.06 -0.08 -0.19 -0.20
0.00 0.00 0.00 0.00 0.00 0.00 0.00 0.00 0.00 0.00 0.01 0.01 0.01 0.01 0.01 0.01 0.01 0.01 0.01 0.00 -0.00 -0.00 -0.00 -0.00 0.00 0.00 0.00 0.01 0.01 0.01 0.00 0.00 -0.00 0.00 0.00 -0.00 -0.01 -0.08 -0.08 -0.06 -0.02 -0.01 -0.01 -0.03 -0.03 -0.03 -0.03 -0.00 -0.00 -0.00 -0.01 -0.02 -0.01 -0.02 -0.02 -0.01 -0.01 -0.01 -0.01 -0.02 -0.03 -0.04 -0.04 -0.05 -0.05 -0.05 -0.04 -0.06 -0.21
0.00 0.00 0.00 0.00 0.00 0.00 0.00 0.00 0.00 0.00 0.01 0.01 0.01 0.01 0.01 0.01 0.01 0.01 0.01 0.00 -0.00 -0.00 -0.00 -0.00 -0.00 0.00 0.00 0.00 0.01 0.01 0.01 0.01 0.00 0.00 0.00 0.00 -0.00 -0.01 -0.01 -0.04 -0.12 -0.12 -0.12 -0.04 -0.03 -0.03 -0.04 -0.03 -0.01 -0.01 -0.01 -0.02 -0.02 -0.02 -0.02 -0.02 -0.02 -0.01 -0.01 -0.03 -0.04 -0.06 -0.06 -0.06 -0.05 -0.05 -0.04 -0.05 -0.08
0.00 0.00 0.00 0.00 0.00 0.00 0.00 0.00 0.00 0.00 0.00 0.00 0.00 0.01 0.01 0.01 0.01 0.01 0.01 0.00 0.00 -0.00 -0.00 -0.00 -0.00 -0.00 -0.00 0.00 0.01 0.01 0.01 0.01 0.00 0.00 0.00 0.00 -0.00 -0.00 -0.00 -0.01 -0.02 -0.06 -0.06 -0.12 -0.12 -0.12 -0.07 -0.05 -0.03 -0.03 -0.03 -0.02 -0.02 -0.02 -0.02 -0.02 -0.02 -0.02 -0.02 -0.02 -0.05 -0.09 -0.09 -0.08 -0.06 -0.06 -0.05 -0.05 -0.08
0.00 0.00 0.00 0.00 0.00 0.00 0.00 0.00 0.00 0.00 0.00 0.00 0.00 0.00 0.00 0.01 0.01 0.01 0.01 0.01 0.00 0.00 0.00 -0.00 -0.00 -0.00 -0.00 0.00 0.00 0.00 0.00 0.00 0.00 0.00 0.00 0.00 -0.00 -0.00 -0.00 -0.00 -0.01 -0.01 -0.01 -0.03 -0.05 -0.05 -0.08 -0.14 -0.10 -0.10 -0.09 -0.05 -0.03 -0.03 -0.03 -0.02 -0.03 -0.03 -0.03 -0.04 -0.05 -0.10 -0.10 -0.10 -0.08 -0.08 -0.06 -0.06 -0.09
0.00 0.00 0.00 0.00 0.00 0.00 0.00 0.00 0.00 0.00 0.00 0.00 0.00 0.00 0.00 0.01 0.01 0.01 0.01 0.01 0.01 0.00 0.00 0.00 0.00 0.00 0.00 0.00 0.00 0.00 0.00 0.00 0.00 0.00 0.00 0.00 0.00 -0.00 -0.00 -0.01 -0.01 -0.01 -0.01 -0.01 -0.01 -0.01 -0.02 -0.03 -0.01 -0.01 -0.03 -0.09 -0.08 -0.08 -0.08 -0.07 -0.07 -0.07 -0.07 -0.08 -0.08 -0.08 -0.08 -0.13 -0.10 -0.10 -0.08 -0.08 -0.09
0.00 0.00 0.00 0.00 0.00 0.00 0.00 0.00 0.00 0.00 0.00 0.00 0.00 0.00 0.00 0.00 0.01 0.01 0.01 0.00 0.00 0.00 0.00 0.01 0.01 0.00 0.00 0.00 0.00 0.00 0.00 0.00 -0.00 0.00 0.00 0.00 0.00 -0.00 -0.00 -0.01 -0.01 -0.01 -0.01 -0.01 -0.01 -0.01 -0.01 -0.00 0.00 0.00 0.00 -0.02 -0.08 -0.08 -0.08 -0.07 -0.08 -0.09 -0.09 -0.09 -0.09 -0.07 -0.07 -0.08 -0.14 -0.14 -0.12 -0.13 -0.13
0.00 0.00 0.00 0.00 0.00 0.00 0.00 0.00 0.00 0.00 0.00 0.00 0.00 0.00 0.00 0.00 0.01 0.00 0.00 0.00 0.00 0.00 0.00 0.00 0.01 0.00 0.00 0.00 0.00 0.00 0.00 -0.00 -0.00 -0.00 -0.00 0.00 0.00 -0.00 -0.00 -0.00 -0.00 -0.00 -0.00 -0.00 -0.01 -0.01 -0.00 0.00 0.01 0.01 0.01 -0.01 -0.03 -0.05 -0.05 -0.06 -0.06 -0.07 -0.07 -0.09 -0.09 -0.11 -0.11 -0.12 -0.08 -0.08 -0.13 -0.15 -0.16
0.00 0.00 0.00 0.00 0.00 0.00 0.00 0.00 0.00 0.00 0.00 0.00 0.00 0.00 0.00 0.00 0.00 0.00 0.00 0.00 0.00 0.00 0.00 0.00 0.00 0.00 0.00 -0.00 0.00 0.00 0.00 -0.00 -0.00 -0.00 -0.00 0.00 0.00 0.00 0.00 -0.00 0.00 0.00 0.00 -0.00 -0.00 -0.00 -0.00 0.00 0.01 0.01 0.01 0.00 -0.02 -0.03 -0.03 -0.04 -0.04 -0.05 -0.05 -0.06 -0.06 -0.08 -0.08 -0.11 -0.14 -0.14 -0.10 -0.08 -0.16
0.00 0.00 0.00 0.00 0.00 0.00 0.00 0.00 0.00 0.00 -0.00 -0.00 -0.00 0.00 0.00 0.00 0.00 0.00 0.00 0.00 0.00 0.00 0.00 0.00 0.00 -0.00 -0.00 -0.00 0.00 0.00 0.00 -0.00 -0.00 -0.00 -0.00 0.00 0.00 0.00 0.00 -0.00 0.00 0.00 0.00 0.01 -0.00 -0.00 0.00 0.00 0.01 0.01 0.01 0.01 -0.00 -0.02 -0.02 -0.03 -0.04 -0.03 -0.03 -0.03 -0.02 -0.05 -0.05 -0.07 -0.10 -0.10 -0.11 -0.11 -0.12
0.00 -0.00 -0.00 -0.00 0.00 0.00 0.00 0.00 0.00 0.00 -0.00 -0.00 -0.00 0.00 0.00 0.00 0.00 0.00 0.00 0.00 0.00 0.00 0.00 0.00 0.00 0.00 0.00 -0.00 0.00 0.00 0.00 -0.00 -0.00 -0.00 -0.00 -0.00 0.00 -0.00 -0.00 -0.00 -0.00 0.00 0.00 0.00 0.00 0.00 0.00 0.01 0.01 0.01 0.01 0.00 -0.00 -0.01 -0.01 -0.02 -0.03 -0.03 -0.03 -0.02 -0.02 -0.02 -0.02 -0.04 -0.06 -0.06 -0.09 -0.10 -0.12
-0.00 -0.00 -0.00 -0.00 -0.00 -0.00 -0.00 -0.00 -0.00 -0.00 -0.00 -0.00 -0.00 0.00 0.00 0.00 0.00 0.00 0.00 0.00 0.00 0.00 0.00 0.00 0.00 0.00 0.00 0.00 0.00 0.00 0.00 -0.00 -0.00 -0.01 -0.01 -0.00 -0.00 -0.00 -0.00 -0.00 -0.00 0.00 0.00 0.00 -0.00 -0.00 0.00 0.01 0.01 0.01 0.01 0.00 -0.00 -0.01 -0.01 -0.02 -0.03 -0.03 -0.03 -0.03 -0.02 -0.02 -0.02 -0.03 -0.04 -0.04 -0.06 -0.07 -0.06
-0.00 -0.00 -0.00 -0.00 -0.00 -0.00 -0.00 -0.00 0.00 0.00 -0.00 -0.00 -0.00 0.00 0.00 0.00 0.00 0.00 0.00 0.00 -0.00 0.00 0.00 0.00 0.00 0.00 0.00 0.00 0.00 0.00 0.00 -0.00 -0.00 -0.01 -0.01 -0.00 -0.00 -0.00 -0.00 -0.00 -0.00 0.00 0.00 -0.00 -0.01 -0.01 0.00 0.01 0.01 0.01 0.00 -0.00 -0.00 -0.00 -0.00 -0.01 -0.02 -0.02 -0.02 -0.03 -0.03 -0.02 -0.02 -0.03 -0.04 -0.04 -0.05 -0.06 -0.07
-0.00 -0.00 -0.00 -0.00 -0.00 -0.00 -0.00 -0.00 0.00 0.00 -0.00 -0.00 -0.00 -0.00 -0.00 -0.00 -0.00 0.00 0.00 -0.00 0.00 -0.00 -0.00 -0.00 -0.00 0.00 0.00 0.00 0.00 0.00 -0.00 -0.00 -0.00 -0.01 -0.01 -0.00 -0.00 -0.00 -0.00 -0.00 -0.00 0.00 0.00 -0.01 -0.01 -0.01 -0.00 0.00 0.01 0.01 0.01 -0.00 -0.00 -0.00 -0.00 -0.00 -0.01 -0.01 -0.01 -0.02 -0.03 -0.03 -0.03 -0.03 -0.04 -0.04 -0.05 -0.05 -0.04
-0.00 -0.00 -0.00 -0.00 -0.00 -0.00 -0.00 -0.00 -0.00 -0.00 -0.00 -0.00 -0.00 -0.00 -0.00 -0.00 -0.00 0.00 0.00 -0.00 0.00 -0.00 -0.00 -0.00 0.00 0.00 0.00 0.00 0.00 0.00 -0.00 -0.00 0.00 -0.01 -0.01 -0.01 -0.00 0.00 0.00 0.00 -0.00 0.00 0.00 -0.00 -0.01 -0.01 -0.00 0.00 0.01 0.01 0.00 -0.00 -0.00 -0.00 -0.00 -0.00 -0.01 -0.01 -0.01 -0.02 -0.02 -0.03 -0.03 -0.03 -0.03 -0.03 -0.04 -0.04 -0.04
-0.00 -0.00 -0.00 -0.00 -0.00 -0.00 -0.00 -0.00 0.00 0.00 -0.00 -0.00 -0.00 -0.00 -0.00 -0.00 -0.00 -0.00 -0.00 -0.00 0.00 -0.00 -0.00 -0.00 0.00 0.00 0.00 0.00 0.00 0.00 -0.00 -0.00 0.00 -0.00 -0.00 -0.01 -0.00 0.00 0.00 0.00 0.00 -0.00 -0.00 -0.00 -0.00 -0.00 -0.00 0.00 0.01 0.01 0.01 0.00 -0.00 -0.00 -0.00 -0.00 -0.00 -0.00 -0.00 -0.01 -0.02 -0.03 -0.03 -0.03 -0.03 -0.03 -0.04 -0.05 -0.05
-0.00 -0.00 -0.00 -0.00 -0.00 -0.00 -0.00 -0.00 -0.00 -0.00 -0.00 -0.00 -0.00 -0.00 -0.00 -0.00 -0.00 -0.00 -0.00 -0.00 0.00 0.00 0.00 -0.00 0.00 0.00 0.00 0.00 -0.00 -0.00 -0.00 -0.00 0.00 -0.00 -0.00 -0.00 -0.00 0.00 0.00 0.00 0.00 -0.00 -0.00 -0.00 -0.00 -0.00 -0.00 -0.00 0.00 0.00 0.00 -0.00 -0.00 -0.00 -0.00 -0.00 -0.00 -0.00 -0.00 -0.00 -0.01 -0.02 -0.02 -0.03 -0.03 -0.03 -0.03 -0.04 -0.05
-0.00 -0.00 -0.00 -0.00 -0.00 -0.00 -0.00 -0.00 -0.00 -0.00 -0.00 -0.00 -0.00 -0.00 -0.00 -0.00 -0.00 -0.00 -0.00 -0.00 -0.00 0.00 0.00 -0.00 0.00 0.00 0.00 0.00 -0.00 -0.00 0.00 -0.00 0.00 -0.00 -0.00 -0.00 -0.00 -0.00 -0.00 0.00 0.01 -0.00 -0.00 -0.00 0.00 0.00 0.00 0.00 -0.00 -0.00 -0.00 -0.01 -0.00 -0.00 -0.00 -0.00 -0.00 -0.00 -0.00 -0.00 -0.00 -0.01 -0.01 -0.02 -0.03 -0.03 -0.04 -0.04 -0.05
-0.00 -0.00 -0.00 -0.00 -0.00 -0.00 -0.00 -0.00 -0.00 -0.00 -0.00 -0.00 -0.00 -0.00 -0.00 -0.00 -0.00 -0.00 -0.00 -0.00 -0.00 -0.00 -0.00 -0.00 0.00 0.00 0.00 0.00 -0.00 -0.00 0.00 0.00 0.00 -0.00 -0.00 0.00 0.00 0.00 0.00 -0.00 0.01 -0.00 -0.00 -0.00 0.00 0.00 0.00 0.00 -0.00 -0.00 -0.01 -0.01 -0.01 -0.01 -0.01 -0.01 -0.00 -0.00 -0.00 -0.00 -0.00 -0.00 -0.00 -0.01 -0.02 -0.02 -0.03 -0.02 -0.03
-0.00 -0.00 -0.00 -0.00 -0.00 -0.00 -0.00 -0.00 -0.00 -0.00 -0.00 -0.00 -0.00 -0.00 -0.00 -0.00 -0.00 -0.00 -0.00 -0.00 -0.00 -0.00 -0.00 -0.00 -0.00 -0.00 -0.00 0.00 -0.00 -0.00 0.00 0.00 0.00 0.00 0.00 0.00 0.00 0.00 0.00 0.00 0.01 0.00 0.00 -0.00 0.00 0.00 0.00 0.00 -0.00 -0.00 -0.01 -0.01 -0.01 -0.01 -0.01 -0.01 -0.01 -0.01 -0.01 -0.00 -0.00 -0.00 -0.00 -0.00 -0.01 -0.01 -0.01 -0.01 -0.02
0.00 -0.00 -0.00 -0.00 -0.00 -0.00 -0.00 -0.00 -0.00 -0.00 -0.00 -0.00 -0.00 -0.00 -0.00 -0.00 -0.00 -0.00 -0.00 -0.00 -0.00 -0.00 -0.00 -0.00 -0.00 -0.00 -0.00 -0.00 0.00 0.00 0.00 0.00 0.00 0.00 0.00 0.00 0.00 0.00 0.00 0.00 0.00 0.00 0.00 -0.00 0.00 0.00 0.00 0.00 -0.00 -0.00 -0.01 -0.01 -0.02 -0.02 -0.02 -0.02 -0.02 -0.01 -0.01 -0.01 -0.01 -0.01 -0.01 -0.00 -0.00 -0.00 -0.01 -0.01 -0.01